Vertical_Velocity
-1 -3 3 -3 -0 -0 -1 -0 0 -1 1 -2 -2 -1 -1 -1 -1 -2 -1 -2 -1 -1 -2 -1 -1 -2 -0 -0 -0 0 -1 -1 -0 -3 0 4 1 1 1 -2 1 -1 -1 -1 0 1 1
-0 -2 3 -4 1 -1 -1 0 -1 -1 0 -1 -1 -2 -1 -1 -1 -2 -2 -2 -1 -2 -2 -0 -1 -2 1 2 -1 0 0 3 -2 1 2 -4 -3 1 1 -1 -0 6 7 4 2 2 1
0 -2 2 -0 0 0 -2 1 -1 -1 1 -1 -0 -1 -2 -2 -0 -1 -2 -1 -0 -1 -1 -2 -1 -3 -1 -2 -1 2 -0 -1 0 2 1 2 0 0 -1 -1 -4 -3 -4 -4 -0 -0 0
1 -1 2 -1 0 -0 -2 1 -1 -1 1 0 -1 -2 -1 -2 -1 -0 -1 -1 -2 -3 -1 -1 -1 0 -2 -3 -1 0 -4 -2 -2 -2 -2 -5 0 -0 0 0 -3 -1 1 -1 1 0 3
2 -2 1 -1 -0 -1 -0 1 0 -1 1 -0 -1 -2 -2 -1 -1 -0 -1 -2 -0 -3 -4 -2 -3 -1 -2 -1 -1 1 0 1 1 -1 -3 -2 -6 -2 4 -0 0 -4 -2 -0 -0 -1 -0
0 -1 1 -1 -0 -0 0 -0 1 -1 1 -0 -1 -2 -2 -2 -1 -2 -2 -3 1 -0 -1 -3 -2 -2 -0 1 -1 -3 1 1 1 -4 -6 -1 -1 -3 -2 -0 -2 3 3 5 4 -3 -2
-0 0 -1 1 -2 -0 1 -1 0 -2 0 1 -0 -1 -1 -1 -3 -2 -1 -2 -2 -1 -2 -1 -1 -1 -2 -1 -1 -0 -0 -5 -2 1 -0 -1 -3 -4 -2 -2 3 3 5 1 2 -1 -1
-0 0 -2 1 1 -1 0 -1 0 -2 -0 -2 -2 -1 -1 -2 -1 1 0 -1 -2 -1 -0 -1 -1 -2 -3 -2 -4 -5 -3 -1 -3 -3 -2 1 -3 -2 -1 -1 -1 -2 -4 -2 -2 1 3
-1 0 -3 -0 2 -2 -1 0 -0 -1 -0 -0 -0 -4 -2 -1 -1 -1 0 -1 -2 -2 -0 -1 -1 0 -3 -3 -0 -2 -1 -2 -2 -3 -3 -2 -1 2 4 2 0 -1 -3 -3 -5 -10 4
-1 1 -1 -2 1 -1 -2 0 -1 -1 -1 -1 -1 -1 -3 -1 4 -0 -3 -0 -1 -1 -1 1 -1 -2 -2 -0 -1 -2 -3 -1 0 -3 -1 -0 1 -0 -0 -0 -1 -3 -2 -2 -1 -2 -2
-1 -1 -0 -1 0 -1 -2 -0 -1 -1 -2 -1 -2 -3 -3 -4 -3 -2 -0 -1 -2 -3 -6 0 -4 -1 -2 -2 2 1 -3 0 -2 1 -0 -1 -2 -2 -4 -3 -4 -4 -4 -4 -1 0 2
-1 -0 0 -0 0 -1 -1 -1 -0 -2 -1 -3 -2 -3 -3 1 -1 -2 -1 -1 -2 -1 -4 -2 -1 -1 -1 -0 -2 -3 -2 -5 -4 -2 -2 2 -0 -0 -3 -1 -2 -1 -1 3 6 2 -0
1 -1 -0 -0 1 -2 -1 1 1 -2 -2 -2 -2 -3 -3 -2 -2 -3 -2 1 -3 -7 -1 1 1 -2 -2 -3 -3 -4 -9 -7 -6 -6 -10 -3 -1 1 -2 -4 -1 1 0 -3 -6 -2 -6
1 -0 0 0 -0 -2 -1 0 -2 -2 -1 -3 -3 -3 -3 -4 -1 -2 -1 -0 -3 -0 -0 -0 0 1 -3 -2 -2 -1 1 2 6 3 -2 -9 -11 -4 -3 1 -4 4 -1 -1 -2 -1 -3
0 -2 -1 -0 -0 -2 -0 -1 -2 -2 -2 -3 -3 -3 -1 -3 -1 -2 -1 -3 -2 0 -1 0 -0 -2 -4 -1 -0 -3 -1 -1 -3 -3 -6 -1 -7 -2 -0 2 1 2 1 -3 0 1 2
0 0 2 1 -0 -1 -1 -2 -3 -3 -3 -2 -3 -3 -2 -5 -3 -2 -1 -5 -2 -0 -1 -3 -1 -0 -0 -2 1 -1 -2 -2 -1 1 1 2 -7 -2 -5 -0 -1 2 1 5 3 -2 -2
1 -1 0 0 0 -1 -1 -2 -3 -3 -2 -2 -2 -4 -3 -4 -2 -4 -7 -4 -0 -2 -3 0 -2 -2 -3 -4 -3 -3 -1 -2 -1 2 -3 5 0 -9 1 6 2 -0 2 -1 -0 2 -1
-0 -0 0 -1 -1 0 0 -2 -2 -1 -2 -3 -3 -4 -3 -2 -4 -5 -2 -1 1 -0 -1 1 3 -0 -0 -0 -1 -2 -3 -2 -1 -3 -1 -5 2 -7 -3 -3 2 4 4 7 5 -5 -1
-1 -0 -1 -0 -0 -2 0 -2 -3 -1 -2 -2 -0 -4 -3 -3 -5 -5 -4 -2 -1 -3 -4 -1 -3 -3 -1 -1 -1 -2 -5 -0 1 2 1 -4 4 -10 4 -1 3 5 5 2 5 2 -6
-2 -1 0 1 1 -1 -1 -2 -3 -2 -3 -4 -1 -3 -2 -3 -1 -6 -3 1 -2 -1 -1 -2 0 -1 2 -1 -1 -1 0 -3 -1 0 3 2 5 -7 -5 2 0 -1 4 4 17 5 -2
-1 -2 -0 1 -1 -1 -1 -1 -1 -2 -2 -3 -1 -4 1 -1 -0 -3 -2 1 -3 -4 -3 -2 -4 -1 -2 -4 -3 -4 -1 -1 2 -3 1 -1 -6 2 1 -3 2 -4 -3 5 2 1 5
0 1 -1 -2 -3 -1 -2 -1 -0 -2 0 0 -2 -4 -4 -1 2 -4 4 -2 -2 -2 -4 -7 -3 -3 -6 -5 2 -4 1 7 3 -3 2 -1 -7 4 -7 -1 -6 -8 1 -0 3 1 -3
-2 0 0 -0 -0 -3 -3 -1 -1 -1 3 0 3 -1 0 -2 -3 -3 -1 1 -4 -3 -2 -1 2 -2 -0 1 -1 3 1 5 4 -4 0 4 -0 2 -9 1 -4 -1 -2 -1 -3 -0 1
-1 -4 -4 -1 0 -1 -1 -2 -1 1 1 1 -2 0 0 -7 -0 0 0 -3 3 1 1 -0 -2 2 -5 0 -1 -3 -0 -1 0 1 1 0 5 6 -8 -5 -2 -1 0 3 1 -1 -3
1 4 -1 -4 -1 -0 -1 -1 -1 -0 -2 -1 -2 3 3 -4 1 -1 3 -2 -2 -3 -5 1 -0 -8 -2 -0 -0 -4 -3 -2 0 -1 1 2 9 -1 -2 -0 -10 -1 -0 0 0 -3 -3
-4 -4 2 4 3 1 -1 -2 -3 3 1 -7 -2 4 -1 7 -4 1 1 -1 -2 -0 -6 -2 1 0 0 -2 -2 -0 -3 -1 1 -1 -4 -3 1 4 3 0 -0 -0 0 -4 -4 -9 -2
5 4 1 -1 -5 0 5 2 5 4 9 2 0 1 3 3 6 2 0 -2 -1 0 -4 -4 -2 -0 0 0 1 -1 -5 -3 -3 -2 -1 -1 0 -3 4 0 -4 -0 2 -2 -0 -4 -0
-2 6 7 2 1 2 -3 2 1 0 8 9 6 7 5 -0 7 1 -1 -3 3 1 1 -2 -1 -4 -3 1 0 1 1 2 -3 1 -3 1 -0 -3 4 -0 -6 -1 3 2 3 -1 1
2 1 2 1 3 1 7 6 6 8 11 12 12 7 3 7 2 3 -1 4 2 0 -0 -5 -2 2 -1 -4 -1 -1 -2 1 2 -5 1 -2 -5 -3 -4 -4 -3 1 1 -3 2 -1 4
Height
3191 3192 3191 3191 3189 3187 3185 3183 3181 3178 3176 3173 3170 3167 3165 3163 3161 3160 3158 3157 3155 3154 3153 3153 3153 3152 3151 3150 3149 3149 3148 3146 3146 3144 3144 3145 3143 3142 3142 3142 3141 3140 3139 3139 3139 3138 3137
3192 3193 3192 3192 3190 3189 3186 3185 3182 3179 3176 3174 3171 3168 3166 3164 3162 3160 3159 3157 3156 3155 3154 3154 3153 3153 3152 3152 3150 3150 3149 3148 3148 3146 3145 3145 3144 3144 3143 3142 3142 3142 3140 3140 3139 3138 3137
3192 3193 3193 3192 3191 3189 3188 3185 3183 3180 3177 3175 3172 3170 3167 3165 3163 3161 3159 3157 3156 3156 3155 3155 3154 3154 3153 3154 3152 3151 3150 3149 3148 3147 3146 3144 3144 3143 3143 3142 3142 3142 3142 3140 3139 3138 3138
3192 3193 3193 3192 3191 3190 3189 3186 3184 3182 3178 3176 3173 3171 3168 3166 3164 3162 3160 3158 3158 3156 3155 3155 3155 3155 3154 3153 3152 3152 3151 3151 3149 3147 3146 3145 3144 3143 3142 3142 3141 3140 3139 3137 3136 3136 3136
3193 3192 3193 3192 3192 3190 3188 3187 3185 3183 3179 3177 3174 3172 3169 3167 3165 3162 3161 3159 3158 3157 3156 3156 3157 3156 3156 3156 3155 3154 3153 3151 3150 3148 3147 3146 3145 3143 3142 3140 3140 3137 3138 3138 3139 3138 3137
3192 3192 3193 3193 3192 3190 3188 3187 3186 3184 3180 3177 3175 3172 3170 3167 3165 3163 3161 3160 3159 3158 3158 3157 3158 3160 3158 3158 3155 3154 3152 3151 3150 3148 3147 3145 3142 3141 3141 3140 3139 3137 3135 3135 3135 3134 3133
3191 3192 3193 3192 3192 3191 3189 3188 3186 3184 3181 3177 3175 3172 3170 3167 3165 3163 3161 3160 3161 3160 3158 3157 3159 3158 3158 3157 3155 3154 3152 3150 3150 3148 3146 3144 3143 3141 3140 3140 3139 3139 3137 3138 3136 3132 3130
3190 3191 3192 3192 3192 3191 3189 3188 3186 3185 3182 3179 3175 3171 3168 3165 3163 3162 3160 3159 3159 3160 3158 3158 3158 3159 3158 3157 3156 3153 3152 3151 3149 3146 3145 3145 3141 3141 3140 3139 3139 3138 3136 3135 3134 3133 3130
3189 3190 3190 3191 3191 3190 3188 3188 3186 3184 3182 3179 3175 3171 3167 3162 3160 3160 3159 3159 3158 3158 3158 3160 3159 3159 3159 3157 3155 3153 3152 3150 3148 3147 3144 3143 3143 3141 3140 3138 3137 3136 3135 3133 3131 3126 3123
3186 3188 3189 3189 3189 3189 3187 3187 3186 3184 3182 3178 3174 3170 3166 3161 3162 3159 3158 3157 3156 3157 3159 3163 3161 3160 3159 3156 3156 3154 3152 3152 3148 3147 3145 3144 3144 3142 3141 3139 3137 3135 3134 3132 3128 3124 3118
3184 3186 3186 3187 3188 3187 3186 3185 3185 3184 3181 3178 3173 3169 3165 3161 3160 3159 3158 3157 3156 3157 3160 3165 3162 3162 3159 3159 3157 3154 3152 3149 3147 3146 3146 3146 3143 3140 3139 3139 3136 3136 3131 3127 3122 3118 3114
3181 3183 3184 3185 3186 3186 3184 3185 3184 3182 3180 3177 3173 3169 3165 3163 3161 3159 3157 3156 3157 3159 3161 3163 3163 3161 3159 3157 3156 3154 3151 3150 3148 3147 3146 3143 3141 3140 3138 3136 3133 3129 3125 3119 3116 3116 3115
3177 3180 3181 3181 3183 3183 3183 3183 3182 3181 3179 3177 3173 3169 3166 3163 3161 3159 3157 3157 3158 3158 3165 3165 3161 3159 3158 3156 3154 3152 3150 3147 3147 3146 3144 3143 3140 3138 3137 3135 3131 3127 3123 3120 3120 3118 3114
3174 3176 3177 3178 3180 3180 3180 3181 3180 3179 3178 3175 3172 3168 3165 3162 3161 3159 3158 3159 3157 3162 3162 3162 3161 3159 3158 3157 3155 3152 3149 3148 3148 3147 3145 3144 3140 3140 3137 3135 3131 3126 3124 3126 3127 3122 3111
3169 3172 3173 3175 3176 3177 3178 3178 3178 3177 3176 3174 3171 3168 3165 3163 3161 3159 3159 3158 3161 3162 3163 3161 3160 3159 3158 3157 3155 3152 3150 3149 3148 3147 3147 3142 3139 3136 3134 3131 3131 3126 3124 3123 3118 3112 3110
3165 3168 3169 3171 3172 3173 3174 3175 3175 3174 3173 3172 3170 3167 3164 3162 3160 3159 3160 3160 3162 3162 3161 3161 3160 3160 3158 3157 3155 3152 3150 3150 3147 3147 3144 3140 3133 3131 3133 3131 3128 3125 3122 3120 3118 3116 3109
3160 3163 3165 3166 3168 3170 3171 3172 3172 3170 3170 3169 3168 3166 3163 3162 3161 3160 3159 3161 3162 3162 3162 3162 3160 3159 3158 3157 3155 3152 3152 3150 3147 3146 3144 3140 3138 3134 3128 3126 3126 3124 3122 3122 3120 3116 3110
3155 3158 3160 3162 3164 3166 3167 3167 3167 3167 3167 3167 3165 3165 3162 3161 3163 3160 3161 3161 3162 3162 3161 3161 3159 3158 3157 3155 3153 3151 3150 3148 3144 3141 3140 3139 3134 3127 3121 3119 3119 3119 3117 3116 3116 3112 3108
3150 3153 3155 3158 3160 3162 3163 3163 3164 3164 3164 3164 3163 3162 3162 3161 3161 3161 3162 3162 3161 3160 3160 3159 3159 3158 3156 3154 3153 3149 3148 3146 3143 3139 3135 3132 3128 3126 3115 3116 3118 3117 3115 3114 3112 3107 3098
3145 3148 3150 3153 3155 3157 3158 3159 3160 3160 3161 3162 3161 3161 3160 3159 3159 3160 3161 3160 3160 3159 3158 3158 3157 3156 3154 3152 3151 3148 3145 3142 3140 3136 3133 3130 3125 3125 3120 3116 3117 3111 3110 3109 3109 3103 3096
3139 3142 3144 3146 3149 3151 3153 3155 3155 3156 3157 3158 3158 3158 3158 3158 3157 3158 3158 3157 3157 3157 3157 3155 3154 3153 3152 3150 3147 3144 3142 3139 3136 3132 3128 3125 3119 3117 3112 3109 3107 3102 3098 3097 3096 3094 3092
3133 3136 3139 3142 3144 3146 3148 3150 3151 3152 3152 3154 3155 3154 3154 3155 3154 3155 3155 3153 3153 3153 3152 3152 3149 3148 3147 3145 3144 3139 3136 3134 3131 3128 3124 3120 3114 3109 3099 3098 3097 3092 3090 3086 3084 3082 3080
3127 3130 3134 3136 3139 3141 3143 3145 3145 3146 3147 3148 3149 3149 3149 3150 3151 3151 3151 3149 3148 3148 3146 3146 3144 3143 3141 3139 3138 3135 3132 3128 3126 3122 3120 3117 3112 3107 3095 3093 3090 3083 3082 3082 3080 3077 3079
3119 3123 3126 3129 3132 3134 3136 3138 3140 3140 3142 3143 3144 3144 3144 3142 3144 3146 3144 3145 3143 3142 3142 3139 3138 3137 3136 3134 3131 3129 3126 3122 3118 3115 3112 3109 3106 3104 3094 3091 3089 3083 3081 3078 3078 3076 3076
3109 3113 3116 3121 3124 3127 3129 3131 3133 3134 3135 3137 3138 3138 3138 3134 3137 3138 3138 3137 3137 3136 3136 3133 3130 3130 3129 3127 3126 3122 3119 3116 3110 3108 3107 3106 3105 3104 3099 3092 3084 3078 3077 3077 3075 3073 3072
3097 3101 3107 3111 3114 3118 3122 3125 3127 3129 3128 3129 3131 3132 3132 3130 3129 3130 3130 3130 3130 3129 3129 3128 3127 3124 3122 3121 3120 3117 3115 3111 3106 3103 3103 3103 3101 3100 3095 3093 3083 3075 3075 3074 3071 3066 3066
3089 3093 3097 3101 3105 3109 3113 3116 3118 3121 3121 3121 3123 3124 3124 3124 3123 3123 3123 3124 3124 3123 3122 3121 3121 3119 3117 3114 3112 3109 3106 3107 3103 3099 3097 3097 3095 3092 3091 3088 3078 3073 3070 3069 3070 3069 3061
3082 3085 3089 3092 3096 3100 3103 3106 3109 3111 3112 3113 3115 3115 3116 3114 3116 3116 3118 3119 3118 3117 3116 3116 3115 3112 3110 3109 3107 3105 3099 3097 3095 3094 3092 3091 3091 3086 3083 3084 3076 3071 3069 3070 3066 3063 3057
3076 3079 3081 3086 3088 3090 3093 3096 3099 3101 3103 3104 3106 3106 3107 3108 3110 3110 3111 3112 3112 3111 3110 3109 3109 3106 3105 3104 3104 3100 3099 3093 3090 3087 3085 3083 3082 3080 3078 3070 3066 3065 3065 3063 3059 3057 3052